ONEWEB-0039, 45146

Orbit data source: Space-Track

ONEWEB-0039, 45146 is a payload satellite owned by One Web (UK) in LEO that was launched on Thu, 06 Feb 2020 UTC via a SOYUZ-2-1B launch vehicle from the Tyuratam Missile And Space Complex (TTMTR). Payload-class satellites include a variety of spacecraft equipped with specific instruments for various scientific and technological missions. These include communications satellites like Starlink; space stations such as the ISS; scientific satellites like the Hubble; Earth observation satellites from companies like Planet Labs, Umbra, and HawkEye 360; GPS; miniature CubeSats for education and research; and military/defense satellites.

Loading next visibility...
Identifier
45146, 2020-008R
Orbit
LEO
Country
Flag of UKUK
Related business
Manufacturer
One Web
Mission
Operational Commercial Communications
Bus & Motor
ARROW, Unknown motor
Mass
148 kg wet, ~140 kg dry
Launch date (UTC)
2020-02-06 (6 years ago)
Launch vehicle
SOYUZ-2-1B
Launch site
Tyuratam Missile And Space Complex (TTMTR)
Object type
Payload
Rocket body
Debris
Shape & HBR
Trap Box + 2 Pan, 6.7 m
Radar Cross Section
3.464 m², Large (>1 m²)

Expand to show TLE details & history
Last TLE update: 5 hours ago

TLE from 5 hours ago
0 ONEWEB-0039
1 45146U 20008R   26035.11775000  .00000011  00000-0 -48568-5 0  9996
2 45146  87.8766  62.7800 0001856  77.7819 282.3516 13.10377027290735
Epoch: 2026-02-04T02:49Z
TLE epoch observation values (Epoch: 2026-02-04T02:49:33.600Z)
Latitude
-0.00001°
Longitude
-113.89893°
Altitude
1,224.287 km
Speed
7.242 km/s
True Right ascension
04h 11m 07s
True Declination
0° 00' 00"
Sunlit
Object was in daylight at epoch
Visualization orbit readout
Latitude
Unknown
Longitude
Unknown
Altitude
Unknown
Speed
Unknown
Apparent Right ascension
Unknown
Apparent Declination
Unknown
Sunlit
N/A
Visualization observer readout
Local Sidereal Time
10:07:31
Azimuth
Unknown
Elevation
Unknown
Doppler factor
Unknown
Orbital elements
Apogee altitude
1,220.231 km
Perigee altitude
1,217.411 km
Semi-major axis
7,596.958 km
Eccentricity
0.00019
Inclination
87.8766°
RAAN
62.78°
Arg. of periapsis
77.7819°
True anomaly
282.33082°
Mean anomaly
282.3516°
Eccentric anomaly
282.34121°
Mean motion
3.27781 °/min
Orbital period
109.83 mins
BSTAR
-0.0000048568
Loading maneuver chart data...
Computing Atmospheric mass density...
Loading historical data...
Loading historical data...
Loading historical data...
Loading historical data...
Loading historical data...
Loading historical data...
Loading historical data...

Documentation

Showing up to 5 results
|